When you browse on this site, cookies collect data to enhance your experience and personalize the content and advertising you see.
Visit our Privacy Policy to learn more. By continuing to use the site, you agree to this use of cookies and data.
  • Em Portugal
  • Lista de países
  • Para 7 dias
  • Temperatura da água
  • Mapa do tempo
  • Widgets de tempo
  • user-avatar
    Iniciar Sessão

    Previsão horária em Nachiczewan

    Hoje, 1 Junho, Segunda-feira

    Tempo Temperatura Precipitação Vento Pressão Humidade
    00:00 +24°C° 0 mm 2 m/s 686 mmHg 44%
    01:00 +23°C° 0 mm 2 m/s 686 mmHg 45%
    02:00 +23°C° 0 mm 1 m/s 686 mmHg 46%
    03:00 +22°C° 0 mm 1 m/s 686 mmHg 47%
    04:00 +23°C° 0 mm 1 m/s 686 mmHg 45%
    05:00 +23°C° 0 mm 1 m/s 686 mmHg 42%
    06:00 +24°C° 0 mm 1 m/s 687 mmHg 40%
    07:00 +25°C° 0 mm 1 m/s 687 mmHg 36%
    08:00 +26°C° 0 mm 1 m/s 687 mmHg 33%
    09:00 +28°C° 0 mm 1 m/s 687 mmHg 29%
    10:00 +29°C° 0 mm 1 m/s 687 mmHg 24%
    11:00 +31°C° 0 mm 1 m/s 687 mmHg 20%
    12:00 +32°C° 0 mm 1 m/s 687 mmHg 16%
    13:00 +33°C° 0 mm 1 m/s 687 mmHg 14%
    14:00 +33°C° 0 mm 1 m/s 686 mmHg 13%
    15:00 +34°C° 0 mm 1 m/s 686 mmHg 12%
    16:00 +35°C° 0 mm 3 m/s 686 mmHg 13%
    17:00 +34°C° 0 mm 4 m/s 686 mmHg 14%
    18:00 +34°C° 0 mm 5 m/s 686 mmHg 15%
    19:00 +32°C° 0 mm 4 m/s 686 mmHg 18%
    20:00 +30°C° 0 mm 3 m/s 686 mmHg 20%
    21:00 +28°C° 0 mm 1 m/s 686 mmHg 23%
    22:00 +27°C° 0 mm 1 m/s 686 mmHg 26%
    23:00 +26°C° 0 mm 1 m/s 685 mmHg 29%

    Amanhã, 2 Junho, Terça-feira

    Tempo Temperatura Precipitação Vento Pressão Humidade
    00:00 +25°C° 0 mm 1 m/s 685 mmHg 31%
    01:00 +25°C° 0 mm 1 m/s 685 mmHg 33%
    02:00 +24°C° 0 mm 1 m/s 685 mmHg 35%
    03:00 +23°C° 0 mm 1 m/s 684 mmHg 36%
    04:00 +24°C° 0 mm 1 m/s 685 mmHg 36%
    05:00 +25°C° 0 mm 1 m/s 685 mmHg 35%
    06:00 +26°C° 0 mm 1 m/s 685 mmHg 35%
    07:00 +27°C° 0 mm 1 m/s 685 mmHg 30%
    08:00 +29°C° 0 mm 2 m/s 685 mmHg 25%
    09:00 +31°C° 0 mm 2 m/s 685 mmHg 20%
    10:00 +34°C° 0 mm 4 m/s 685 mmHg 17%
    11:00 +35°C° 0 mm 5 m/s 685 mmHg 15%
    12:00 +38°C° 0 mm 7 m/s 685 mmHg 13%
    13:00 +36°C° 0 mm 7 m/s 684 mmHg 14%
    14:00 +36°C° 0 mm 7 m/s 684 mmHg 15%
    15:00 +36°C° 0 mm 7 m/s 683 mmHg 16%
    16:00 +34°C° 0.1 mm 6 m/s 683 mmHg 19%
    17:00 +33°C° 0.1 mm 4 m/s 682 mmHg 22%
    18:00 +30°C° 0.1 mm 2 m/s 682 mmHg 26%
    19:00 +29°C° 0 mm 2 m/s 682 mmHg 29%
    20:00 +28°C° 0 mm 1 m/s 682 mmHg 32%
    21:00 +27°C° 0 mm 1 m/s 682 mmHg 35%
    22:00 +26°C° 0 mm 1 m/s 682 mmHg 37%
    23:00 +25°C° 0 mm 1 m/s 682 mmHg 39%

    Depois de amanhã, 3 Junho, Quarta-feira

    Tempo Temperatura Precipitação Vento Pressão Humidade
    00:00 +25°C° 0 mm 1 m/s 683 mmHg 41%
    01:00 +24°C° 0 mm 1 m/s 683 mmHg 42%
    02:00 +23°C° 0 mm 1 m/s 683 mmHg 44%
    03:00 +23°C° 0 mm 1 m/s 683 mmHg 45%
    04:00 +23°C° 0 mm 1 m/s 683 mmHg 43%
    05:00 +23°C° 0 mm 1 m/s 683 mmHg 42%
    06:00 +22°C° 0 mm 0 m/s 684 mmHg 41%
    07:00 +25°C° 0 mm 1 m/s 684 mmHg 36%
    08:00 +27°C° 0 mm 1 m/s 684 mmHg 31%
    09:00 +28°C° 0 mm 1 m/s 684 mmHg 26%
    10:00 +29°C° 0 mm 1 m/s 684 mmHg 23%
    11:00 +30°C° 0 mm 1 m/s 684 mmHg 21%
    12:00 +32°C° 0 mm 1 m/s 684 mmHg 18%
    13:00 +32°C° 0 mm 2 m/s 684 mmHg 19%
    14:00 +33°C° 0 mm 3 m/s 684 mmHg 21%
    15:00 +32°C° 0 mm 4 m/s 683 mmHg 22%
    16:00 +32°C° 0 mm 4 m/s 683 mmHg 21%
    17:00 +32°C° 0 mm 5 m/s 684 mmHg 21%
    18:00 +33°C° 0 mm 6 m/s 684 mmHg 20%
    19:00 +30°C° 0 mm 5 m/s 684 mmHg 22%
    20:00 +29°C° 0 mm 4 m/s 684 mmHg 23%
    21:00 +27°C° 0 mm 3 m/s 684 mmHg 24%
    22:00 +26°C° 0 mm 3 m/s 685 mmHg 27%
    23:00 +25°C° 0 mm 3 m/s 685 mmHg 29%

    4 Junho, Quinta-feira

    Tempo Temperatura Precipitação Vento Pressão Humidade
    00:00 +24°C° 0 mm 3 m/s 685 mmHg 32%
    01:00 +23°C° 0 mm 2 m/s 685 mmHg 34%
    02:00 +21°C° 0 mm 2 m/s 685 mmHg 35%
    03:00 +21°C° 0 mm 1 m/s 685 mmHg 37%
    04:00 +22°C° 0 mm 1 m/s 685 mmHg 35%
    05:00 +23°C° 0 mm 1 m/s 686 mmHg 33%
    06:00 +23°C° 0 mm 1 m/s 686 mmHg 32%
    07:00 +24°C° 0 mm 1 m/s 686 mmHg 28%
    08:00 +26°C° 0 mm 1 m/s 686 mmHg 25%
    09:00 +27°C° 0 mm 1 m/s 686 mmHg 22%
    10:00 +28°C° 0 mm 1 m/s 686 mmHg 20%
    11:00 +30°C° 0 mm 2 m/s 686 mmHg 19%
    12:00 +31°C° 0 mm 2 m/s 686 mmHg 17%
    13:00 +33°C° 0 mm 3 m/s 686 mmHg 15%
    14:00 +35°C° 0 mm 4 m/s 686 mmHg 14%
    15:00 +36°C° 0 mm 5 m/s 686 mmHg 12%
    16:00 +35°C° 0 mm 5 m/s 686 mmHg 12%
    17:00 +35°C° 0 mm 5 m/s 687 mmHg 13%
    18:00 +35°C° 0 mm 6 m/s 687 mmHg 13%
    19:00 +32°C° 0 mm 5 m/s 687 mmHg 16%
    20:00 +29°C° 0 mm 4 m/s 687 mmHg 19%
    21:00 +27°C° 0 mm 3 m/s 687 mmHg 22%
    22:00 +26°C° 0 mm 3 m/s 687 mmHg 25%
    23:00 +25°C° 0 mm 2 m/s 688 mmHg 27%

    5 Junho, Sexta-feira

    Tempo Temperatura Precipitação Vento Pressão Humidade
    00:00 +24°C° 0 mm 2 m/s 688 mmHg 29%
    01:00 +24°C° 0 mm 2 m/s 688 mmHg 31%
    02:00 +23°C° 0 mm 1 m/s 687 mmHg 32%
    03:00 +22°C° 0 mm 1 m/s 687 mmHg 33%
    04:00 +23°C° 0 mm 1 m/s 688 mmHg 33%
    05:00 +23°C° 0 mm 1 m/s 688 mmHg 32%
    06:00 +24°C° 0 mm 1 m/s 688 mmHg 31%
    07:00 +25°C° 0 mm 1 m/s 689 mmHg 28%
    08:00 +26°C° 0 mm 2 m/s 689 mmHg 25%
    09:00 +28°C° 0 mm 2 m/s 689 mmHg 23%
    10:00 +29°C° 0 mm 2 m/s 689 mmHg 21%
    11:00 +30°C° 0 mm 2 m/s 689 mmHg 19%
    12:00 +31°C° 0 mm 1 m/s 689 mmHg 17%
    13:00 +31°C° 0 mm 1 m/s 689 mmHg 16%
    14:00 +32°C° 0 mm 1 m/s 689 mmHg 15%
    15:00 +33°C° 0 mm 1 m/s 688 mmHg 14%
    16:00 +34°C° 0 mm 2 m/s 688 mmHg 15%
    17:00 +34°C° 0 mm 3 m/s 688 mmHg 15%
    18:00 +34°C° 0 mm 4 m/s 688 mmHg 15%
    19:00 +31°C° 0 mm 3 m/s 689 mmHg 19%
    20:00 +29°C° 0 mm 3 m/s 689 mmHg 23%
    21:00 +28°C° 0 mm 2 m/s 689 mmHg 27%
    22:00 +27°C° 0 mm 2 m/s 689 mmHg 31%
    23:00 +26°C° 0 mm 2 m/s 689 mmHg 35%

    6 Junho, Sábado

    Tempo Temperatura Precipitação Vento Pressão Humidade
    00:00 +24°C° 0 mm 1 m/s 689 mmHg 39%
    01:00 +24°C° 0 mm 1 m/s 689 mmHg 42%
    02:00 +23°C° 0 mm 1 m/s 689 mmHg 45%
    03:00 +22°C° 0 mm 1 m/s 689 mmHg 49%
    04:00 +22°C° 0 mm 1 m/s 689 mmHg 48%
    05:00 +23°C° 0 mm 1 m/s 689 mmHg 47%
    06:00 +23°C° 0 mm 1 m/s 689 mmHg 47%
    07:00 +24°C° 0.1 mm 1 m/s 689 mmHg 43%
    08:00 +25°C° 0.1 mm 1 m/s 689 mmHg 40%
    09:00 +26°C° 0.1 mm 1 m/s 689 mmHg 37%
    10:00 +28°C° 0 mm 1 m/s 690 mmHg 34%
    11:00 +29°C° 0 mm 1 m/s 690 mmHg 31%
    12:00 +30°C° 0 mm 2 m/s 690 mmHg 28%
    13:00 +31°C° 0 mm 2 m/s 689 mmHg 25%
    14:00 +32°C° 0 mm 2 m/s 689 mmHg 23%
    15:00 +34°C° 0 mm 3 m/s 689 mmHg 21%
    16:00 +33°C° 0 mm 4 m/s 689 mmHg 23%
    17:00 +32°C° 0 mm 4 m/s 689 mmHg 25%
    18:00 +30°C° 0 mm 5 m/s 689 mmHg 27%
    19:00 +29°C° 0 mm 4 m/s 689 mmHg 31%
    20:00 +27°C° 0 mm 3 m/s 690 mmHg 35%
    21:00 +26°C° 0 mm 2 m/s 690 mmHg 40%
    22:00 +25°C° 0 mm 2 m/s 690 mmHg 42%
    23:00 +24°C° 0 mm 2 m/s 690 mmHg 44%
    Mostrar mais